Weather History for Ord, NE

Change the Weather History Date:

Wednesday, July 25, 2012

  Actual Average Record
Temperature  
Mean Temperature 81 °F 75 °F  
Max Temperature 97 °F 88 °F 99 °F (2002)
Min Temperature 64 °F 62 °F 46 °F (2004)
Degree Days  
Heating Degree Days 0 0  
Month to date heating degree days 0 0  
Since 1 June heating degree days 16 37  
Since 1 July heating degree days 0 0  
Cooling Degree Days 16 10  
Month to date cooling degree days 409 237  
Year to date cooling degree days 784 440  
Since 1 June cooling degree days 697 399  
Growing Degree Days 32 (Base 50)    
Moisture  
Dew Point 63 °F    
Average Humidity 57    
Maximum Humidity 81    
Minimum Humidity 33    
Precipitation  
Precipitation T in 0.08 in 1.17 in (1986)
Month to date precipitation 0.15 2.09  
Year to date precipitation 10.13 14.87  
Sea Level Pressure  
Sea Level Pressure 29.71 in    
Wind  
Wind Speed 8 mph (NNW)    
Max Wind Speed 22 mph    
Max Gust Speed 29 mph    
Visibility 10 miles    
Events      
T = Trace of Precipitation, MM = Missing Value Source: NWS Daily Summary

Daily Weather History Graph

Daily Weather History Graph

Search for Another Location

Airport:

Trip Planner

Search our weather history database for the weather conditions in past years. The results will help you decide how hot, cold, wet, or windy it might be!

Date:

Astronomy

Jul. 25, 2012 Rise Set
Actual Time 6:23 AM CDT 9:00 PM CDT
Civil Twilight 5:51 AM CDT 9:32 PM CDT
Nautical Twilight 5:11 AM CDT 10:11 PM CDT
Astronomical Twilight 4:26 AM CDT 10:56 PM CDT
Moon 1:37 PM CDT (7/25) No Moon Set
Length of Visible Light 15h 40m
Length of Day
14h 36m
Waxing Crescent, 42% of the Moon is Illuminated
Jul 25
Waxing Crescent
Jul 26
First Quarter
Aug 1
Full
Aug 9
Last Quarter
Aug 17
New

Hourly Weather History & Observations

Time (CDT) Temp. Heat Index Dew Point Humidity Pressure Visibility Wind Dir Wind Speed Gust Speed Precip Events Conditions
12:53 AM 82.9 °F 82.8 °F 59.0 °F 44% 29.64 in 10.0 mi SSW 9.2 mph - N/A   Clear
1:53 AM 78.1 °F - 60.1 °F 54% 29.64 in 10.0 mi South 5.8 mph - N/A   Clear
2:53 AM 75.9 °F - 59.0 °F 56% 29.64 in 10.0 mi SSW 8.1 mph - N/A   Clear
3:53 AM 78.1 °F - 57.9 °F 50% 29.63 in 10.0 mi South 9.2 mph - N/A   Clear
4:53 AM 70.0 °F - 61.0 °F 73% 29.66 in 10.0 mi NW 3.5 mph - N/A   Clear
5:53 AM 68.0 °F - 61.0 °F 78% 29.67 in 10.0 mi South 5.8 mph - N/A   Clear
6:53 AM 70.0 °F - 59.0 °F 68% 29.68 in 10.0 mi Calm Calm - N/A   Clear
7:53 AM 77.0 °F - 64.0 °F 64% 29.70 in 10.0 mi NW 16.1 mph - N/A   Clear
8:53 AM 81.0 °F 84.1 °F 69.1 °F 67% 29.70 in 10.0 mi North 16.1 mph 25.3 mph N/A   Clear
9:53 AM 84.9 °F 88.2 °F 68.0 °F 57% 29.70 in 10.0 mi North 13.8 mph 20.7 mph N/A   Clear
10:53 AM 88.0 °F 91.4 °F 68.0 °F 51% 29.70 in 9.0 mi North 9.2 mph - N/A   Clear
11:53 AM 91.0 °F 94.3 °F 66.9 °F 45% 29.70 in 10.0 mi NNE 10.4 mph 17.3 mph N/A   Clear
12:53 PM 91.0 °F 94.3 °F 66.9 °F 45% 29.71 in 10.0 mi NNW 8.1 mph - N/A   Clear
1:53 PM 96.1 °F 96.9 °F 62.1 °F 32% 29.70 in 10.0 mi NW 11.5 mph - N/A   Clear
2:53 PM 90.0 °F 92.4 °F 66.0 °F 45% 29.73 in 10.0 mi NW 20.7 mph 26.5 mph N/A   Partly Cloudy
3:53 PM 89.1 °F 91.3 °F 66.0 °F 46% 29.74 in 10.0 mi NNW 6.9 mph - 0.00 in   Partly Cloudy
4:53 PM 87.1 °F 88.9 °F 64.9 °F 48% 29.73 in 10.0 mi NNW 15.0 mph 19.6 mph N/A   Mostly Cloudy
5:53 PM 86.0 °F 86.8 °F 63.0 °F 46% 29.75 in 10.0 mi North 4.6 mph - N/A   Partly Cloudy
6:53 PM 87.1 °F 88.3 °F 64.0 °F 46% 29.73 in 10.0 mi North 9.2 mph - N/A   Clear
7:53 PM 84.0 °F 85.4 °F 64.0 °F 51% 29.74 in 10.0 mi North 9.2 mph - N/A   Clear
8:53 PM 81.0 °F 81.7 °F 61.0 °F 50% 29.76 in 10.0 mi North 5.8 mph - N/A   Clear
9:53 PM 73.0 °F - 63.0 °F 71% 29.77 in 10.0 mi NNW 6.9 mph - N/A   Clear
10:53 PM 71.1 °F - 61.0 °F 70% 29.77 in 10.0 mi NNW 3.5 mph - N/A   Clear
11:53 PM 66.9 °F - 60.1 °F 79% 29.78 in 10.0 mi Calm Calm - N/A   Clear